DH0GMA Weather Reports


Display with metric or nautical units.
time (UTC)temp
F
wind
direction
speed
MPH
gust
MPH
rain 1hr
in
rain 24hr
in
rain mn
in
humidity
%
barometer
mb
20260509092627 65 159 0.0 4.0 0.00 0.00 0.00 67 1017.0
20260509091626 64 119 1.0 3.0 0.00 0.00 0.00 68 1016.9
20260509090626 62 37 2.0 4.0 0.00 0.00 0.00 69 1017.0
20260509085628 61 41 0.0 2.0 0.00 0.00 0.00 73 1017.1
20260509084628 60 39 0.0 4.0 0.00 0.00 0.00 72 1017.2
20260509083628 60 79 1.0 5.0 0.00 0.00 0.00 72 1017.2
20260509082627 60 158 0.0 2.0 0.00 0.00 0.00 73 1017.3
20260509081627 60 153 1.0 3.0 0.00 0.00 0.00 71 1017.2
20260509080627 60 161 0.0 4.0 0.00 0.00 0.00 73 1017.3
20260509075627 58 33 0.0 2.0 0.00 0.00 0.00 77 1017.2
20260509074627 56 33 0.0 2.0 0.00 0.00 0.00 77 1017.2
20260509073627 56 33 1.0 4.0 0.00 0.00 0.00 78 1017.4
20260509072627 55 33 1.0 2.0 0.00 0.00 0.00 77 1017.3
20260509071628 56 32 1.0 2.0 0.00 0.00 0.00 77 1017.3
20260509070627 55 35 1.0 2.0 0.00 0.00 0.00 80 1017.3
20260509065627 54 44 0.0 2.0 0.00 0.00 0.00 80 1017.3
20260509064627 53 45 0.0 2.0 0.00 0.00 0.00 80 1017.2
20260509063627 53 45 0.0 3.0 0.00 0.00 0.00 81 1017.2
20260509062626 52 45 0.0 2.0 0.00 0.00 0.00 82 1017.2
20260509061626 51 47 2.0 3.0 0.00 0.00 0.00 84 1017.2
20260509060626 51 46 0.0 1.0 0.00 0.00 0.00 85 1017.2
20260509055626 50 45 0.0 1.0 0.00 0.00 0.00 86 1017.1
20260509054626 50 46 0.0 1.0 0.00 0.00 0.00 86 1017.0
20260509053627 49 46 1.0 3.0 0.00 0.00 0.00 86 1017.1
20260509052627 49 46 0.0 1.0 0.00 0.00 0.00 86 1017.0
20260509051627 49 46 0.0 5.0 0.00 0.00 0.00 86 1017.1
20260509050628 49 43 1.0 3.0 0.00 0.00 0.00 86 1016.9
20260509045627 49 66 0.0 4.0 0.00 0.00 0.00 86 1016.8
20260509044627 49 71 0.0 2.0 0.00 0.00 0.00 86 1016.8
20260509043627 48 70 1.0 5.0 0.00 0.00 0.00 86 1016.8
20260509042627 48 52 0.0 1.0 0.00 0.00 0.00 86 1016.8
20260509041627 48 52 0.0 0.0 0.00 0.00 0.00 86 1016.7
20260509040627 49 52 0.0 0.0 0.00 0.00 0.00 86 1016.8
20260509035626 49 52 0.0 0.0 0.00 0.00 0.00 86 1016.7
20260509034626 49 52 0.0 0.0 0.00 0.00 0.00 86 1016.8
20260509033626 49 52 0.0 2.0 0.00 0.00 0.00 86 1016.7
20260509032626 49 52 1.0 3.0 0.00 0.00 0.00 86 1016.5
20260509031626 48 31 3.0 6.0 0.00 0.00 0.00 86 1016.4
20260509030626 48 67 0.0 3.0 0.00 0.00 0.00 86 1016.7
20260509025626 49 48 1.0 4.0 0.00 0.00 0.00 85 1016.5
20260509024626 49 62 2.0 6.0 0.00 0.00 0.00 85 1016.5
20260509023628 49 50 2.0 4.0 0.00 0.00 0.00 85 1016.6
20260509022627 49 50 1.0 3.0 0.00 0.00 0.00 85 1016.6
20260509021627 49 40 1.0 5.0 0.00 0.00 0.00 85 1016.7
20260509020627 49 40 1.0 4.0 0.00 0.00 0.00 85 1016.5
20260509015627 49 38 1.0 3.0 0.00 0.00 0.00 84 1016.5
20260509014627 49 38 1.0 1.0 0.00 0.00 0.00 84 1016.5
20260509013627 49 35 2.0 4.0 0.00 0.00 0.00 84 1016.5
20260509012627 49 45 0.0 2.0 0.00 0.00 0.00 84 1016.7
20260509011627 49 45 0.0 1.0 0.00 0.00 0.00 84 1016.6
20260509010626 49 45 0.0 0.0 0.00 0.00 0.00 84 1016.7
20260509005626 50 45 0.0 0.0 0.00 0.00 0.00 83 1016.8
20260509004626 50 45 0.0 1.0 0.00 0.00 0.00 83 1016.7
20260509003626 50 45 0.0 1.0 0.00 0.00 0.00 83 1016.6
20260509002626 51 45 0.0 0.0 0.00 0.00 0.00 83 1016.6
20260509001626 51 45 0.0 1.0 0.00 0.00 0.00 83 1016.4
20260509000626 51 45 0.0 2.0 0.00 0.00 0.00 82 1016.4
20260508235626 51 45 1.0 2.0 0.00 0.00 0.00 82 1016.5
20260508234627 51 44 0.0 2.0 0.00 0.00 0.00 82 1016.6
20260508233627 52 45 0.0 2.0 0.00 0.00 0.00 82 1016.9
20260508232627 52 45 0.0 1.0 0.00 0.00 0.00 81 1017.0
20260508231627 52 45 0.0 1.0 0.00 0.00 0.00 81 1016.9
20260508230627 52 45 0.0 0.0 0.00 0.00 0.00 81 1017.2
20260508225627 52 45 0.0 3.0 0.00 0.00 0.00 81 1017.0
20260508224627 52 45 1.0 3.0 0.00 0.00 0.00 81 1016.9
20260508223627 52 41 0.0 0.0 0.00 0.00 0.00 81 1017.0
20260508222626 52 41 0.0 2.0 0.00 0.00 0.00 81 1017.0
20260508221626 53 41 0.0 1.0 0.00 0.00 0.00 81 1017.0
20260508220626 53 41 0.0 2.0 0.00 0.00 0.00 81 1016.9
20260508215626 53 41 0.0 1.0 0.00 0.00 0.00 80 1016.9
20260508214626 53 42 1.0 2.0 0.00 0.00 0.00 80 1016.9
20260508213626 53 43 0.0 2.0 0.00 0.00 0.00 79 1016.8
20260508212626 54 43 1.0 4.0 0.00 0.00 0.00 79 1016.6
20260508211626 54 43 1.0 4.0 0.00 0.00 0.00 78 1016.6
20260508210626 54 35 1.0 2.0 0.00 0.00 0.00 77 1016.7
20260508205626 54 38 1.0 3.0 0.00 0.00 0.00 76 1016.6
20260508204626 55 38 0.0 3.0 0.00 0.00 0.00 76 1016.5
20260508203626 55 38 1.0 3.0 0.00 0.00 0.00 75 1016.3
20260508202626 56 38 0.0 3.0 0.00 0.00 0.00 74 1016.5
20260508201626 56 38 0.0 1.0 0.00 0.00 0.00 73 1016.4
20260508200625 57 47 0.0 3.0 0.00 0.00 0.00 72 1016.2
20260508195627 57 65 1.0 2.0 0.00 0.00 0.00 72 1016.1
20260508194627 57 29 1.0 3.0 0.00 0.00 0.00 71 1016.1
20260508193626 58 70 1.0 4.0 0.00 0.00 0.00 71 1016.0
20260508192626 58 43 1.0 5.0 0.00 0.00 0.00 70 1015.8
20260508191626 58 47 1.0 4.0 0.00 0.00 0.00 70 1015.7
20260508190626 59 84 1.0 5.0 0.00 0.00 0.00 69 1015.6
20260508185626 59 37 2.0 4.0 0.00 0.00 0.00 68 1015.4
20260508184626 60 53 2.0 5.0 0.00 0.00 0.00 67 1015.1
20260508183626 60 37 0.0 4.0 0.00 0.00 0.00 67 1015.1
20260508182625 61 41 2.0 5.0 0.00 0.00 0.00 66 1015.1
20260508181627 61 66 1.0 6.0 0.00 0.00 0.00 66 1014.9
20260508180627 62 49 2.0 7.0 0.00 0.00 0.00 64 1014.8
20260508175627 62 64 3.0 6.0 0.00 0.00 0.00 64 1014.6
20260508174627 63 47 3.0 10.0 0.00 0.00 0.00 62 1014.6
20260508173627 64 31 2.0 6.0 0.00 0.00 0.00 61 1014.4
20260508172627 64 78 2.0 7.0 0.00 0.00 0.00 61 1014.2
20260508171627 65 54 2.0 9.0 0.00 0.00 0.00 60 1014.2
20260508170626 65 37 2.0 10.0 0.00 0.00 0.00 58 1014.1
20260508165626 66 44 1.0 6.0 0.00 0.00 0.00 57 1014.1
20260508164626 67 18 0.0 2.0 0.00 0.00 0.00 54 1014.1
20260508163626 67 50 1.0 6.0 0.00 0.00 0.00 53 1014.1
20260508162626 67 65 4.0 7.0 0.00 0.00 0.00 53 1014.1
20260508161626 67 44 1.0 5.0 0.00 0.00 0.00 55 1014.1
20260508160626 67 54 1.0 5.0 0.00 0.00 0.00 56 1014.1
20260508155626 67 54 1.0 5.0 0.00 0.00 0.00 53 1014.1
20260508154625 68 358 2.0 5.0 0.00 0.00 0.00 52 1014.1
20260508153625 67 5 1.0 5.0 0.00 0.00 0.00 53 1014.1
20260508152625 67 43 2.0 5.0 0.00 0.00 0.00 54 1014.1
20260508151627 67 31 1.0 4.0 0.00 0.00 0.00 56 1014.3
20260508150627 67 59 1.0 6.0 0.00 0.00 0.00 56 1014.4
20260508145627 67 37 3.0 7.0 0.00 0.00 0.00 56 1014.6
20260508144627 68 87 2.0 5.0 0.00 0.00 0.00 55 1014.6
20260508143627 67 358 2.0 4.0 0.00 0.00 0.00 57 1014.8
20260508142627 68 18 1.0 5.0 0.00 0.00 0.00 58 1014.9
20260508141626 67 74 1.0 5.0 0.00 0.00 0.00 57 1014.9
20260508140626 66 2 1.0 7.0 0.00 0.00 0.00 62 1015.1
20260508135626 64 74 2.0 5.0 0.00 0.00 0.00 61 1015.3
20260508134626 65 27 2.0 4.0 0.00 0.00 0.00 61 1015.3
20260508133626 66 37 2.0 6.0 0.00 0.00 0.00 61 1015.3
20260508132626 65 64 1.0 4.0 0.00 0.00 0.00 65 1015.5
20260508131626 65 83 1.0 5.0 0.00 0.00 0.00 61 1015.5
20260508130625 67 59 2.0 9.0 0.00 0.00 0.00 60 1015.6
20260508125625 66 353 2.0 4.0 0.00 0.00 0.00 62 1015.7
20260508124625 65 67 4.0 8.0 0.00 0.00 0.00 62 1015.9
20260508123625 65 340 1.0 3.0 0.00 0.00 0.00 63 1015.9
20260508122625 65 42 0.0 2.0 0.00 0.00 0.00 63 1016.0
20260508121627 63 54 0.0 4.0 0.00 0.00 0.00 66 1016.1
20260508120629 64 60 2.0 6.0 0.00 0.00 0.00 63 1016.1
20260508115629 63 43 1.0 4.0 0.00 0.00 0.00 66 1016.3
20260508114629 64 55 3.0 8.0 0.00 0.00 0.00 65 1016.2
20260508113627 64 20 2.0 6.0 0.00 0.00 0.00 66 1016.2
20260508112627 63 56 3.0 4.0 0.00 0.00 0.00 65 1016.2
20260508111627 64 60 2.0 7.0 0.00 0.00 0.00 65 1016.3
20260508110627 62 18 2.0 3.0 0.00 0.00 0.00 69 1016.4
20260508105627 62 3 4.0 6.0 0.00 0.00 0.00 69 1016.5
20260508104629 61 20 1.0 4.0 0.00 0.00 0.00 70 1016.5
20260508103629 61 55 1.0 5.0 0.00 0.00 0.00 70 1016.7
20260508102628 60 2 1.0 6.0 0.00 0.00 0.00 74 1016.7
20260508101628 60 22 1.0 6.0 0.00 0.00 0.00 74 1016.9
20260508100628 60 60 1.0 7.0 0.00 0.00 0.00 74 1016.8
20260508095628 60 67 3.0 7.0 0.00 0.01 0.00 73 1016.9
20260508094628 59 61 1.0 5.0 0.00 0.01 0.00 75 1017.0
20260508093628 59 42 2.0 6.0 0.00 0.01 0.00 74 1017.0